GW4214 Weather Reports


Display with metric or nautical units.
time (UTC)temp
F
wind
direction
speed
MPH
gust
MPH
rain 1hr
in
rain 24hr
in
rain mn
in
humidity
%
barometer
mb
20260903145609 55 107 5.0 6.0 0.00 0.15 0.15 99 1012.8
20260903145104 54 184 1.0 1.0 0.00 0.15 0.15 99 1012.5
20260903144603 54 179 4.0 5.0 0.00 0.15 0.15 99 1012.5
20260903144059 54 171 2.0 2.0 0.00 0.15 0.15 99 1012.5
20260903143555 54 184 3.0 5.0 0.00 0.15 0.15 99 1012.5
20260903143051 54 178 3.0 3.0 0.00 0.15 0.15 99 1012.5
20260903142546 54 146 5.0 7.0 0.00 0.15 0.15 98 1012.5
20260903142043 54 159 4.0 5.0 0.00 0.15 0.15 98 1012.5
20260903141538 54 130 5.0 7.0 0.00 0.15 0.15 98 1012.8
20260903141033 54 140 2.0 5.0 0.00 0.15 0.15 98 1012.5
20260903140529 54 121 7.0 9.0 0.07 0.15 0.15 98 1012.1
20260903140024 54 176 1.0 2.0 0.12 0.15 0.15 98 1012.5
20260903135520 54 172 5.0 6.0 0.12 0.14 0.14 98 1012.5
20260903135019 55 166 0.0 0.0 0.14 0.13 0.13 98 1012.5
20260903134519 55 172 0.0 0.0 0.12 0.12 0.12 98 1012.8
20260903134015 55 170 0.0 0.0 0.12 0.11 0.11 98 1012.8
20260903133512 55 183 0.0 0.0 0.07 0.10 0.10 98 1012.5
20260903133008 55 194 5.0 7.0 0.12 0.09 0.09 97 1012.5
20260903132502 55 169 5.0 7.0 0.35 0.09 0.09 97 1012.8
20260903131957 55 179 4.0 5.0 0.28 0.07 0.07 96 1012.5
20260903131452 55 207 4.0 5.0 0.12 0.03 0.03 96 1012.1
20260903130951 55 93 5.0 8.0 0.07 0.02 0.02 95 1012.5
20260903130446 56 170 6.0 10.0 0.00 0.01 0.01 95 1012.5
20260903125944 56 178 4.0 5.0 0.07 0.01 0.01 94 1012.5
20260903125439 56 147 7.0 9.0 0.07 0.01 0.01 93 1012.1
20260903124938 56 165 9.0 13.0 0.00 0.00 0.00 91 1012.5
20260903124433 56 147 9.0 10.0 0.00 0.00 0.00 92 1012.5
20260903123932 56 168 5.0 7.0 0.00 0.00 0.00 92 1012.1
20260903123427 56 160 5.0 8.0 0.00 0.00 0.00 93 1012.1
20260903122926 55 171 4.0 5.0 0.00 0.00 0.00 93 1012.1
20260903122421 55 154 5.0 7.0 0.00 0.00 0.00 94 1012.1
20260903121919 55 152 5.0 6.0 0.00 0.00 0.00 94 1012.5
20260903121415 55 120 6.0 7.0 0.00 0.00 0.00 94 1012.5
20260903120911 55 169 5.0 6.0 0.00 0.00 0.00 94 1012.5
20260903120410 55 155 7.0 9.0 0.00 0.00 0.00 94 1012.5
20260903115908 55 89 5.0 6.0 0.00 0.00 0.00 94 1012.5
20260903115403 55 168 4.0 5.0 0.00 0.00 0.00 94 1012.5
20260903114857 55 162 4.0 6.0 0.00 0.00 0.00 94 1012.5
20260903114354 55 145 4.0 5.0 0.00 0.00 0.00 94 1012.5
20260903113849 55 188 6.0 9.0 0.00 0.00 0.00 94 1012.5
20260903113344 56 196 5.0 6.0 0.00 0.00 0.00 93 1012.5
20260903112840 56 174 3.0 3.0 0.00 0.00 0.00 93 1012.1
20260903112336 56 185 4.0 5.0 0.00 0.00 0.00 93 1012.5
20260903111834 56 174 3.0 3.0 0.00 0.00 0.00 92 1012.1
20260903111328 56 180 5.0 7.0 0.00 0.00 0.00 92 1012.5
20260903110825 56 149 5.0 6.0 0.00 0.00 0.00 92 1012.5
20260903110321 56 145 3.0 3.0 0.00 0.00 0.00 92 1012.5
20260903105820 56 157 3.0 3.0 0.00 0.00 0.00 92 1012.5
20260903105310 56 179 7.0 8.0 0.00 0.00 0.00 92 1012.5
20260903104810 56 190 3.0 3.0 0.00 0.00 0.00 92 1012.5
20260903104310 56 163 5.0 7.0 0.00 0.00 0.00 92 1012.5
20260903103806 56 184 5.0 6.0 0.00 0.00 0.00 92 1012.5
20260903103256 56 162 5.0 7.0 0.00 0.00 0.00 92 1012.8
20260903102751 56 95 3.0 6.0 0.00 0.00 0.00 92 1012.5
20260903102246 56 152 3.0 3.0 0.00 0.00 0.00 92 1012.5
20260903101744 56 164 4.0 5.0 0.00 0.00 0.00 92 1012.8
20260903101241 56 139 3.0 5.0 0.00 0.00 0.00 92 1012.5
20260903100736 56 192 5.0 6.0 0.00 0.00 0.00 92 1012.8
20260903100236 56 194 4.0 5.0 0.00 0.00 0.00 92 1012.5
20260903095733 56 194 4.0 6.0 0.00 0.00 0.00 92 1012.5
20260903095228 56 187 3.0 5.0 0.00 0.00 0.00 93 1012.5
20260903094723 56 169 4.0 5.0 0.00 0.00 0.00 93 1012.5
20260903094218 56 213 10.0 13.0 0.00 0.00 0.00 93 1012.5
20260903093714 56 187 4.0 5.0 0.00 0.00 0.00 94 1012.5
20260903093209 56 127 7.0 9.0 0.00 0.00 0.00 94 1012.5
20260903092708 56 170 3.0 5.0 0.00 0.00 0.00 94 1012.5
20260903092203 56 188 3.0 5.0 0.00 0.00 0.00 94 1012.5
20260903091701 56 150 4.0 7.0 0.00 0.00 0.00 94 1012.8
20260903091156 56 172 3.0 3.0 0.00 0.00 0.00 93 1012.8
20260903090652 57 162 2.0 2.0 0.00 0.00 0.00 93 1012.8
20260903090150 57 174 3.0 6.0 0.00 0.00 0.00 93 1012.8
20260903085649 57 169 3.0 3.0 0.00 0.00 0.00 93 1012.5
20260903085145 57 193 5.0 6.0 0.00 0.00 0.00 93 1012.8
20260903084642 56 175 1.0 2.0 0.00 0.00 0.00 93 1012.8
20260903084137 56 195 2.0 3.0 0.00 0.00 0.00 93 1012.8
20260903083633 56 181 4.0 5.0 0.00 0.00 0.00 94 1012.8
20260903083127 56 190 1.0 1.0 0.00 0.00 0.00 93 1012.8
20260903082622 56 172 2.0 3.0 0.00 0.00 0.00 93 1012.8
20260903082118 56 199 3.0 5.0 0.00 0.00 0.00 93 1013.2
20260903081613 57 194 3.0 5.0 0.00 0.00 0.00 93 1012.8
20260903081108 57 151 6.0 8.0 0.00 0.00 0.00 93 1012.8
20260903080604 57 135 3.0 3.0 0.00 0.00 0.00 93 1012.8
20260903075601 56 196 3.0 5.0 0.00 0.00 0.00 94 1012.8
20260903075057 56 147 3.0 3.0 0.00 0.00 0.00 95 1012.8
20260903074556 55 170 5.0 6.0 0.00 0.00 0.00 96 1012.8
20260903074056 55 155 3.0 5.0 0.00 0.00 0.00 96 1012.8
20260903073551 55 162 2.0 2.0 0.00 0.00 0.00 96 1012.8
20260903073047 55 170 1.0 2.0 0.00 0.00 0.00 97 1012.8
20260903072542 56 124 4.0 5.0 0.00 0.00 0.00 97 1012.5
20260903072038 56 154 4.0 5.0 0.00 0.00 0.00 97 1012.8
20260903071535 56 177 3.0 3.0 0.00 0.00 0.00 97 1012.8
20260903071030 56 156 1.0 1.0 0.00 0.00 0.00 97 1012.5
20260903070530 56 172 2.0 2.0 0.00 0.00 0.00 97 1012.8
20260903070026 56 197 0.0 0.0 0.00 0.61 0.61 97 1012.5
20260903065525 56 186 2.0 2.0 0.00 0.61 0.61 97 1012.8
20260903065020 56 204 4.0 6.0 0.00 0.61 0.61 97 1012.5
20260903064519 56 152 4.0 6.0 0.00 0.61 0.61 97 1012.8
20260903064015 56 188 1.0 1.0 0.00 0.61 0.61 97 1012.8
20260903063510 56 169 2.0 2.0 0.00 0.61 0.61 97 1012.8
20260903063006 56 165 2.0 3.0 0.00 0.61 0.61 97 1012.8
20260903062501 56 181 1.0 2.0 0.00 0.61 0.61 97 1012.5
20260903061956 57 146 5.0 7.0 0.05 0.61 0.61 96 1012.8
20260903061456 57 174 3.0 5.0 0.05 0.61 0.61 96 1012.8
20260903060951 57 189 2.0 3.0 0.00 0.60 0.60 96 1012.8
20260903060446 57 128 5.0 6.0 0.00 0.60 0.60 96 1012.8
20260903055944 57 193 1.0 2.0 0.00 0.60 0.60 95 1012.8
20260903055442 57 140 3.0 5.0 0.00 0.60 0.60 95 1013.2
20260903054936 57 193 1.0 1.0 0.00 0.60 0.60 95 1012.8
20260903054431 57 176 7.0 8.0 0.00 0.60 0.60 95 1013.2
20260903053928 57 200 0.0 0.0 0.00 0.60 0.60 96 1012.8
20260903053427 57 186 6.0 7.0 0.00 0.60 0.60 96 1013.2
20260903052924 57 179 4.0 5.0 0.00 0.60 0.60 96 1012.8
20260903052420 57 170 5.0 7.0 0.00 0.60 0.60 96 1013.2
20260903051915 57 202 6.0 7.0 0.00 0.60 0.60 96 1012.8
20260903051410 57 185 2.0 2.0 0.00 0.60 0.60 97 1012.8
20260903050906 57 167 3.0 6.0 0.00 0.60 0.60 97 1012.8
20260903050404 57 194 1.0 2.0 0.00 0.60 0.60 97 1012.8
20260903045859 57 207 3.0 5.0 0.00 0.60 0.60 97 1012.8
20260903045355 57 166 2.0 2.0 0.00 0.60 0.60 98 1012.8
20260903044851 57 154 2.0 3.0 0.00 0.60 0.60 98 1012.5
20260903044346 56 173 3.0 3.0 0.00 0.60 0.60 98 1012.5
20260903043843 56 202 1.0 2.0 0.00 0.60 0.60 98 1012.5
20260903043343 56 164 2.0 3.0 0.00 0.60 0.60 97 1012.1
20260903042841 56 172 2.0 2.0 0.00 0.60 0.60 97 1012.5
20260903042337 56 191 5.0 7.0 0.00 0.60 0.60 97 1012.5
20260903041833 57 159 4.0 6.0 0.00 0.60 0.60 97 1012.1
20260903041329 57 174 2.0 3.0 0.00 0.60 0.60 97 1012.5
20260903040824 57 177 4.0 5.0 0.00 0.60 0.60 96 1012.5
20260903040323 57 172 2.0 3.0 0.00 0.60 0.60 96 1012.5
20260903035820 57 176 5.0 7.0 0.00 0.60 0.60 96 1012.5
20260903035315 57 172 7.0 11.0 0.00 0.60 0.60 96 1012.5
20260903034810 57 189 3.0 3.0 0.00 0.60 0.60 96 1011.8
20260903034305 57 165 2.0 2.0 0.00 0.60 0.60 96 1011.8
20260903033800 57 113 5.0 6.0 0.00 0.60 0.60 96 1011.8
20260903033250 57 174 2.0 3.0 0.00 0.60 0.60 96 1012.1
20260903032749 57 168 4.0 5.0 0.00 0.60 0.60 96 1011.8
20260903032245 57 121 3.0 5.0 0.00 0.60 0.60 97 1011.8
20260903031741 57 142 4.0 6.0 0.00 0.60 0.60 97 1011.8
20260903031240 57 178 4.0 5.0 0.00 0.60 0.60 97 1011.5
20260903030736 57 175 4.0 5.0 0.00 0.60 0.60 97 1011.8
20260903030227 57 173 3.0 5.0 0.00 0.60 0.60 98 1011.5
20260903025722 57 163 4.0 5.0 0.00 0.60 0.60 98 1011.5
20260903025218 57 197 3.0 3.0 0.00 0.60 0.60 98 1011.5
20260903024717 57 154 3.0 3.0 0.00 0.60 0.60 98 1011.5
20260903024217 57 172 1.0 2.0 0.00 0.60 0.60 98 1011.5
20260903023713 57 179 2.0 2.0 0.00 0.60 0.60 98 1011.1
20260903023208 57 183 3.0 3.0 0.00 0.60 0.60 98 1011.5
20260903022708 57 159 3.0 5.0 0.00 0.60 0.60 98 1011.8
20260903022207 58 174 4.0 6.0 0.00 0.60 0.60 98 1011.5
20260903021706 58 186 0.0 0.0 0.00 0.60 0.60 98 1011.5
20260903021202 58 172 0.0 0.0 0.00 0.60 0.60 98 1011.5
20260903020656 58 182 0.0 0.0 0.00 0.60 0.60 98 1011.5
20260903020156 58 208 0.0 0.0 0.00 0.60 0.60 98 1011.1
20260903015652 58 197 0.0 0.0 0.00 0.60 0.60 98 1011.5
20260903015147 58 205 0.0 0.0 0.00 0.60 0.60 98 1011.1
20260903014642 58 206 0.0 0.0 0.00 0.60 0.60 99 1011.1
20260903014141 58 190 0.0 0.0 0.00 0.60 0.60 98 1011.1
20260903013636 58 200 0.0 0.0 0.00 0.60 0.60 98 1010.7
20260903013136 58 188 0.0 0.0 0.00 0.60 0.60 98 1010.7
20260903012635 58 188 1.0 1.0 0.00 0.60 0.60 98 1011.1
20260903012134 58 183 3.0 3.0 0.00 0.60 0.60 98 1010.7
20260903011634 58 188 1.0 2.0 0.00 0.60 0.60 98 1010.7
20260903011128 58 178 3.0 5.0 0.00 0.60 0.60 98 1010.7
20260903010624 58 194 2.0 2.0 0.00 0.60 0.60 98 1010.7
20260903010122 58 190 5.0 7.0 0.00 0.60 0.60 98 1010.7
20260903005617 58 193 2.0 3.0 0.00 0.60 0.60 99 1010.7
20260903005113 58 208 2.0 3.0 0.12 0.60 0.60 99 1010.7
20260903004608 58 210 0.0 1.0 0.19 0.60 0.60 99 1010.7
20260903004103 59 212 3.0 5.0 0.07 0.58 0.58 99 1010.7
20260903003558 59 189 4.0 5.0 0.00 0.57 0.57 99 1010.7
20260903003054 59 201 3.0 5.0 0.00 0.57 0.57 99 1010.7
20260903002548 59 211 3.0 5.0 0.00 0.57 0.57 99 1010.4
20260903002043 59 214 1.0 2.0 0.00 0.57 0.57 99 1010.7
20260903001537 59 205 2.0 2.0 0.00 0.57 0.57 99 1010.4
20260903001037 59 199 3.0 3.0 0.00 0.57 0.57 99 1010.7
20260903000533 59 210 0.0 1.0 0.00 0.57 0.57 99 1010.4
20260903000031 59 193 1.0 2.0 0.00 0.57 0.57 99 1010.4
20260902235525 59 178 2.0 2.0 0.00 0.57 0.57 99 1010.4
20260902235020 59 204 3.0 3.0 0.00 0.57 0.57 99 1010.4
20260902234515 59 194 0.0 0.0 0.00 0.57 0.57 99 1010.0
20260902234013 59 203 0.0 0.0 0.00 0.57 0.57 99 1010.0
20260902233508 59 212 0.0 0.0 0.00 0.57 0.57 99 1010.0
20260902233002 59 208 0.0 1.0 0.00 0.57 0.57 99 1010.0
20260902232456 59 178 0.0 0.0 0.00 0.57 0.57 99 1010.0
20260902231956 59 182 0.0 0.0 0.28 0.57 0.57 99 1010.0
20260902231451 59 206 0.0 0.0 0.59 0.57 0.57 99 1010.0
20260902230946 59 184 2.0 2.0 0.31 0.52 0.52 99 1010.0
20260902230440 59 209 2.0 2.0 0.12 0.48 0.48 99 1010.0
20260902225939 59 195 6.0 9.0 0.12 0.47 0.47 98 1009.7
20260902225434 59 189 5.0 6.0 0.12 0.46 0.46 98 1009.7
20260902224933 59 184 5.0 6.0 0.12 0.45 0.45 98 1009.7
20260902224433 59 150 9.0 14.0 0.12 0.44 0.44 98 1009.7
20260902223931 59 189 9.0 15.0 0.07 0.43 0.43 98 1009.3
20260902223430 59 155 9.0 11.0 0.05 0.42 0.42 98 1009.7
20260902222930 59 166 5.0 6.0 0.05 0.42 0.42 97 1009.3
20260902222428 59 168 5.0 8.0 0.07 0.41 0.41 98 1009.3
20260902221922 59 142 3.0 5.0 0.07 0.41 0.41 97 1009.7
20260902221421 59 185 4.0 5.0 0.00 0.40 0.40 97 1009.7
20260902220917 59 176 9.0 10.0 0.05 0.40 0.40 97 1009.7
20260902220417 59 162 10.0 13.0 0.05 0.40 0.40 97 1009.3
20260902215912 59 167 8.0 10.0 0.00 0.39 0.39 96 1009.3
20260902215408 59 168 6.0 9.0 0.07 0.39 0.39 96 1009.3
20260902214904 59 165 7.0 10.0 0.07 0.39 0.39 96 1009.0
20260902214402 59 228 5.0 5.0 0.00 0.38 0.38 95 1009.3
20260902213857 59 158 6.0 9.0 0.00 0.38 0.38 95 1009.3
20260902213353 59 197 5.0 6.0 0.00 0.38 0.38 95 1009.3
20260902212851 59 148 7.0 8.0 0.05 0.38 0.38 95 1009.3
20260902212348 59 170 4.0 6.0 0.05 0.38 0.38 95 1009.3
20260902211844 59 189 5.0 6.0 0.05 0.38 0.38 95 1009.7
20260902211340 59 157 8.0 9.0 0.00 0.37 0.37 94 1009.3
20260902210835 59 142 8.0 9.0 0.00 0.37 0.37 94 1009.3
20260902210334 59 161 6.0 13.0 0.07 0.37 0.37 94 1009.3
20260902205833 60 173 5.0 7.0 0.07 0.37 0.37 93 1009.3
20260902205327 59 171 7.0 9.0 0.07 0.36 0.36 92 1009.0
20260902204823 59 180 7.0 9.0 0.07 0.36 0.36 93 1009.0
20260902204318 59 173 6.0 7.0 0.07 0.36 0.36 94 1009.0
20260902203813 59 146 5.0 7.0 0.00 0.35 0.35 95 1009.0
20260902203308 59 154 5.0 6.0 0.00 0.35 0.35 95 1009.0
20260902202802 59 203 4.0 6.0 0.00 0.35 0.35 95 1009.0
20260902202259 58 179 3.0 5.0 0.00 0.35 0.35 96 1009.0
20260902201755 59 222 5.0 8.0 0.00 0.35 0.35 96 1009.0
20260902201255 59 197 5.0 7.0 0.00 0.35 0.35 97 1008.7
20260902200750 59 213 5.0 7.0 0.00 0.35 0.35 97 1008.7
20260902200245 59 200 4.0 6.0 0.00 0.35 0.35 97 1008.7
20260902195741 59 175 9.0 11.0 0.00 0.35 0.35 97 1008.7
20260902195240 59 177 5.0 8.0 0.00 0.35 0.35 97 1008.7
20260902194734 59 179 3.0 3.0 0.00 0.35 0.35 97 1008.7
20260902194229 59 179 8.0 10.0 0.00 0.35 0.35 97 1008.7
20260902193725 58 171 5.0 7.0 0.05 0.35 0.35 97 1008.7
20260902193220 58 176 5.0 7.0 0.05 0.35 0.35 97 1008.7
20260902192718 58 178 3.0 3.0 0.12 0.35 0.35 97 1008.7
20260902192212 58 173 3.0 3.0 0.12 0.34 0.34 98 1008.7
20260902191712 58 181 4.0 7.0 0.05 0.33 0.33 98 1008.7
20260902191207 58 132 5.0 7.0 0.05 0.33 0.33 98 1008.7
20260902190702 58 142 4.0 6.0 0.07 0.32 0.32 98 1008.7
20260902190157 58 177 5.0 6.0 0.12 0.31 0.31 98 1008.7
20260902185653 58 170 2.0 3.0 0.12 0.31 0.31 98 1008.7
20260902185149 58 140 5.0 6.0 0.12 0.30 0.30 98 1008.7
20260902184649 58 184 2.0 2.0 0.12 0.29 0.29 97 1009.0
20260902184145 58 144 4.0 6.0 0.19 0.28 0.28 97 1009.0
20260902183640 58 131 3.0 3.0 0.24 0.27 0.27 97 1008.7
20260902183137 58 176 1.0 1.0 0.24 0.25 0.25 97 1009.0
20260902182632 58 166 6.0 7.0 0.35 0.23 0.23 96 1009.3
20260902182129 58 166 4.0 5.0 0.31 0.21 0.21 96 1009.3
20260902181625 58 170 4.0 5.0 0.24 0.18 0.18 96 1009.0
20260902181124 58 173 4.0 5.0 0.24 0.16 0.16 96 1009.0
20260902180624 58 186 3.0 5.0 0.12 0.14 0.14 96 1009.0
20260902180120 58 195 4.0 6.0 0.07 0.12 0.12 96 1009.3
20260902175620 58 179 4.0 5.0 0.07 0.12 0.12 96 1009.0
20260902175116 58 192 5.0 6.0 0.00 0.11 0.11 95 1009.0
20260902174612 58 171 2.0 3.0 0.00 0.11 0.11 96 1009.0
20260902174108 58 160 2.0 2.0 0.00 0.11 0.11 96 1009.3
20260902173607 58 185 2.0 3.0 0.05 0.11 0.11 96 1009.3
20260902173103 58 183 4.0 5.0 0.12 0.11 0.11 95 1009.3
20260902172556 58 175 2.0 3.0 0.12 0.10 0.10 95 1009.7
20260902172052 58 168 4.0 5.0 0.12 0.09 0.09 95 1009.7
20260902171547 58 167 1.0 2.0 0.12 0.08 0.08 94 1009.7
20260902171043 58 167 3.0 5.0 0.12 0.07 0.07 94 1009.7
20260902170538 58 189 5.0 6.0 0.19 0.06 0.06 93 1009.7
20260902170033 59 219 5.0 8.0 0.12 0.05 0.05 92 1009.7
20260902165528 59 165 5.0 7.0 0.12 0.04 0.04 91 1009.7
20260902165027 59 185 3.0 5.0 0.05 0.03 0.03 90 1009.7
20260902164523 60 186 3.0 5.0 0.07 0.02 0.02 88 1009.7
20260902164021 60 223 1.0 3.0 0.12 0.02 0.02 88 1009.3
20260902163517 61 189 5.0 6.0 0.05 0.01 0.01 86 1009.7
20260902163016 61 195 3.0 3.0 0.00 0.00 0.00 84 1009.3
20260902162510 62 213 3.0 5.0 0.00 0.00 0.00 82 1009.3
20260902162005 62 198 3.0 3.0 0.00 0.00 0.00 81 1009.0
20260902161500 62 205 3.0 5.0 0.00 0.00 0.00 80 1009.0
20260902160956 62 177 2.0 2.0 0.00 0.00 0.00 80 1009.0
20260902160451 62 201 1.0 1.0 0.00 0.00 0.00 81 1009.0
20260902155948 62 203 1.0 1.0 0.00 0.00 0.00 82 1009.0
20260902155444 62 204 1.0 1.0 0.00 0.00 0.00 81 1009.0
20260902154938 62 203 0.0 0.0 0.00 0.00 0.00 82 1009.0
20260902154434 62 201 1.0 2.0 0.00 0.00 0.00 81 1009.3
20260902153933 62 194 1.0 1.0 0.00 0.00 0.00 80 1009.3
20260902153432 62 195 1.0 1.0 0.00 0.00 0.00 80 1009.3
20260902152928 62 200 1.0 1.0 0.00 0.00 0.00 81 1009.3
20260902152423 61 201 1.0 1.0 0.00 0.00 0.00 81 1009.3
20260902151919 61 185 2.0 2.0 0.00 0.00 0.00 82 1009.3
20260902151414 61 167 4.0 5.0 0.00 0.00 0.00 82 1009.7
20260902150908 61 206 0.0 0.0 0.00 0.00 0.00 83 1009.7
20260902150405 61 192 1.0 1.0 0.00 0.00 0.00 83 1009.7